Location: Peach Mountain Observatory
(42.3967°N, 83.9367°W)
Time: 03:59:50
(UTC-05:00)

deb Explorer IX - Pass Details

Date: 30 January 2020
Orbit: 549 x 1099 km, 38.8° (Epoch: 25 February)

Event Time Altitude Azimuth Distance (km) Brightness Sun altitude
Rises 19:18:12 0° 219° (SW) 3,353 ? -17.0°
Reaches altitude 10° 19:20:52 10° 208° (SSW) 2,513 ? -17.5°
Maximum altitude 19:26:03 30° 149° (SSE) 1,646 ? -18.5°
Enters shadow 19:28:18 24° 117° (ESE) 1,904 ? -18.9°
